Location: George Washington National Forest Helicopter Landing Site
(38.6463°N, 79.0851°W)
Time: 23:07:45
(UTC-04:00)

SR - Visible Passes

Search period start: 20 August 2019 00:00
Search period end: 30 August 2019 00:00
Orbit: 578 x 878 km, 66.7° (Epoch: 20 August)

Date Brightness Start Highest point End Pass type
(mag) Time Alt. Az. Time Alt. Az. Time Alt. Az.
20 Aug ? 21:11:57 10° NNE 21:12:57 10° NE 21:13:58 10° NE visible
20 Aug ? 22:50:40 10° NNW 22:55:34 54° NE 22:55:34 54° NE visible
21 Aug ? 00:33:43 10° WNW 00:34:58 15° WNW 00:34:58 15° WNW visible
21 Aug ? 22:01:26 10° N 22:06:18 31° NE 22:07:15 29° ENE visible
21 Aug ? 23:43:14 10° NW 23:46:39 32° WNW 23:46:39 32° WNW visible
22 Aug ? 21:12:36 10° N 21:16:17 18° NE 21:18:58 13° ENE visible
22 Aug ? 22:53:21 10° NNW 22:58:22 72° NW 22:58:22 72° NW visible
23 Aug ? 22:03:48 10° NNW 22:09:16 53° ENE 22:10:09 49° E visible
23 Aug ? 23:46:44 10° WNW 23:49:34 20° W 23:49:34 20° W visible
24 Aug ? 21:14:35 10° N 21:19:25 29° NE 21:21:58 21° E visible
24 Aug ? 22:56:18 10° NW 23:01:23 44° WSW 23:01:23 44° WSW visible
25 Aug ? 20:25:48 10° N 20:29:21 17° NE 20:33:01 10° E visible
25 Aug ? 22:06:27 10° NNW 22:12:05 86° WSW 22:13:17 59° SSE visible
25 Aug ? 23:51:43 10° W 23:52:42 11° W 23:52:42 11° W visible
26 Aug ? 21:16:56 10° NNW 21:22:23 51° ENE 21:25:14 28° ESE visible
26 Aug ? 22:59:44 10° NW 23:04:11 24° WSW 23:04:40 24° WSW visible
27 Aug ? 20:27:45 10° N 20:32:31 28° NE 20:37:15 11° ESE visible
27 Aug ? 22:09:22 10° NW 22:14:47 47° WSW 22:16:41 35° SSW visible
28 Aug ? 21:19:33 10° NNW 21:25:14 90° NE 21:28:48 25° SSE visible
28 Aug ? 23:04:24 10° W 23:06:37 12° WSW 23:08:15 11° WSW visible
29 Aug ? 20:30:04 10° NNW 20:35:30 48° ENE 20:41:01 11° SE visible
29 Aug ? 22:12:45 10° NW 22:17:21 26° WSW 22:20:27 17° SSW visible
